GW0356 Weather Reports


time (UTC)temp
C
wind
direction
speed
KPH
gust
KPH
rain 1hr
cm
rain 24hr
cm
rain mn
cm
humidity
%
barometer
mb
20260906123053 16 109 6.4 9.7 0.00 0.03 0.00 99 1020.2
20260906121550 16 120 3.2 8.0 0.00 0.03 0.00 99 1020.1
20260906120055 16 98 0.0 8.0 0.00 0.03 0.00 99 1019.9
20260906114542 17 120 1.6 9.7 0.00 0.03 0.00 99 1019.9
20260906113040 16 88 4.8 11.3 0.00 0.03 0.00 98 1019.3
20260906111536 16 101 4.8 9.7 0.00 0.03 0.00 98 1019.3
20260906110033 17 93 3.2 9.7 0.00 0.03 0.00 98 1019.3
20260906104531 17 47 1.6 4.8 0.00 0.03 0.00 98 1019.4
20260906103028 17 25 1.6 3.2 0.00 0.03 0.00 98 1019.2
20260906101525 17 110 0.0 3.2 0.00 0.03 0.00 98 1018.8
20260906100023 17 97 1.6 4.8 0.00 0.03 0.00 98 1018.7
20260906094519 17 70 3.2 6.4 0.00 0.03 0.00 98 1018.7
20260906093028 17 88 1.6 8.0 0.00 0.03 0.00 98 1018.6
20260906091512 17 110 4.8 11.3 0.00 0.03 0.00 98 1018.5
20260906090010 17 75 6.4 11.3 0.00 0.03 0.00 98 1018.6
20260906084513 18 253 6.4 14.5 0.00 0.03 0.00 98 1018.6
20260906083006 18 103 6.4 14.5 0.00 0.03 0.00 98 1018.8
20260906081604 18 107 6.4 12.9 0.00 0.03 0.00 98 1018.6
20260906074600 18 101 4.8 11.3 0.00 0.03 0.00 98 1018.9
20260906073057 18 89 6.4 11.3 0.00 0.03 0.00 97 1018.9
20260906071551 18 86 3.2 9.7 0.00 0.03 0.00 97 1018.9
20260906070049 18 108 4.8 9.7 0.00 0.03 0.00 97 1019.0
20260906064546 18 77 3.2 12.9 0.00 0.03 0.00 97 1019.0
20260906063043 18 65 4.8 9.7 0.00 0.03 0.00 97 1019.0
20260906061541 18 40 6.4 9.7 0.00 0.03 0.00 96 1019.2
20260906060037 19 79 3.2 8.0 0.00 0.03 0.00 96 1019.1
20260906054531 19 110 3.2 8.0 0.00 0.03 0.00 96 1019.0
20260906053028 19 124 4.8 8.0 0.00 0.03 0.00 95 1018.9
20260906051525 19 54 4.8 8.0 0.00 0.03 0.00 95 1019.0
20260906050020 20 70 4.8 6.4 0.00 0.03 0.03 94 1019.2
20260906044520 20 75 3.2 6.4 0.00 0.03 0.03 94 1019.3
20260906043014 20 79 3.2 4.8 0.00 0.03 0.03 94 1019.3
20260906041513 20 70 3.2 6.4 0.00 0.03 0.03 94 1019.2
20260906040009 20 117 3.2 8.0 0.00 0.03 0.03 93 1018.9
20260906034505 20 114 3.2 6.4 0.00 0.03 0.03 93 1018.7
20260906033003 20 116 0.0 6.4 0.00 0.03 0.03 93 1018.4
20260906031605 20 109 1.6 11.3 0.00 0.03 0.03 92 1018.4
20260906024559 21 63 4.8 9.7 0.00 0.03 0.03 91 1018.1
20260906023057 21 110 4.8 14.5 0.00 0.03 0.03 91 1017.7
20260906021559 21 72 6.4 12.9 0.00 0.03 0.03 90 1017.6
20260906020054 22 115 4.8 12.9 0.00 0.03 0.03 90 1017.4
20260906014552 22 99 8.0 12.9 0.00 0.03 0.03 91 1017.0
20260906013050 22 99 6.4 11.3 0.00 0.03 0.03 90 1016.8
20260906011604 22 82 1.6 4.8 0.00 0.03 0.03 89 1016.8
20260906010052 22 115 6.4 12.9 0.00 0.03 0.03 87 1016.4
20260906004550 22 115 6.4 9.7 0.00 0.03 0.03 87 1016.3
20260906003046 22 87 0.0 3.2 0.00 0.03 0.03 87 1016.4
20260906001543 22 79 3.2 8.0 0.00 0.03 0.03 87 1016.4
20260906000045 22 108 0.0 3.2 0.00 0.03 0.03 87 1016.4
20260905234543 22 248 1.6 6.4 0.00 0.03 0.03 87 1016.6
20260905233102 22 121 8.0 11.3 0.00 0.03 0.03 88 1016.1
20260905231550 23 148 4.8 11.3 0.00 0.03 0.03 88 1016.5
20260905230045 23 90 4.8 6.4 0.00 0.03 0.03 86 1016.9
20260905224547 23 84 4.8 9.7 0.00 0.03 0.03 84 1016.9
20260905223035 23 72 4.8 9.7 0.00 0.03 0.03 84 1016.9
20260905221539 23 107 8.0 14.5 0.00 0.03 0.03 82 1016.7
20260905220034 24 111 8.0 17.7 0.00 0.03 0.03 83 1016.6
20260905214534 23 92 11.3 19.3 0.00 0.03 0.03 82 1016.7
20260905213035 24 93 11.3 19.3 0.00 0.03 0.03 82 1016.8
20260905211534 25 104 8.0 14.5 0.00 0.03 0.03 82 1017.1
20260905210034 24 96 8.0 19.3 0.00 0.03 0.03 81 1017.0
20260905204531 24 66 12.9 20.9 0.00 0.03 0.03 81 1017.0
20260905203031 25 121 14.5 25.7 0.00 0.03 0.03 81 1016.7
20260905201530 26 96 4.8 17.7 0.00 0.03 0.03 78 1016.7
20260905200032 26 62 11.3 16.1 0.00 0.03 0.03 78 1016.8
20260905194528 26 85 11.3 17.7 0.00 0.03 0.03 77 1017.0
20260905193025 25 77 8.0 16.1 0.00 0.03 0.03 77 1017.0
20260905191524 26 65 1.6 14.5 0.00 0.03 0.03 76 1017.0
20260905190024 26 80 3.2 12.9 0.00 0.64 0.03 78 1017.4
20260905184524 26 89 8.0 16.1 0.00 0.64 0.03 76 1017.1
20260905183024 26 70 11.3 17.7 0.00 0.64 0.03 79 1017.2
20260905181524 25 110 9.7 17.7 0.00 0.64 0.03 81 1017.2
20260905180022 25 110 8.0 12.9 0.00 0.71 0.03 84 1017.3
20260905174524 25 97 4.8 11.3 0.00 0.71 0.03 83 1017.5
20260905173026 25 120 1.6 9.7 0.00 0.71 0.03 83 1017.8
20260905171515 25 98 3.2 11.3 0.00 0.71 0.03 85 1017.6
20260905170015 24 84 0.0 8.0 0.00 0.71 0.03 87 1017.7
20260905164515 24 127 6.4 14.5 0.00 0.71 0.03 86 1017.5
20260905163010 23 118 11.3 16.1 0.00 0.71 0.03 89 1017.5
20260905161510 23 108 8.0 12.9 0.00 0.71 0.03 90 1017.5
20260905160010 23 81 4.8 17.7 0.00 0.71 0.03 91 1017.4
20260905154508 22 105 8.0 19.3 0.00 0.71 0.03 94 1017.6
20260905153006 22 72 8.0 16.1 0.00 0.71 0.03 97 1017.5
20260905151504 22 80 8.0 19.3 0.00 0.71 0.03 99 1017.4
20260905150002 21 70 6.4 16.1 0.00 0.71 0.03 99 1017.2
20260905144503 21 70 12.9 19.3 0.00 0.71 0.03 99 1017.0
20260905143104 21 64 14.5 24.1 0.00 0.71 0.03 99 1016.8
20260905141629 21 56 9.7 17.7 0.00 0.71 0.03 99 1016.7
20260905140057 21 66 14.5 20.9 0.00 0.71 0.03 99 1016.7
20260905134555 21 66 6.4 11.3 0.00 0.71 0.03 99 1016.4
20260905133052 21 69 9.7 14.5 0.00 0.71 0.03 99 1015.8
20260905131601 20 150 9.7 16.1 0.00 0.71 0.03 99 1015.8
20260905130045 20 64 8.0 12.9 0.03 0.71 0.03 99 1015.8
20260905124549 20 70 6.4 9.7 0.03 0.84 0.03 99 1015.9